CW0230 Weather Reports


time (UTC)temp
C
wind
direction
speed
KPH
gust
KPH
rain 1hr
cm
rain 24hr
cm
rain mn
cm
humidity
%
barometer
mb
20260505215005 11 324 4.8 11.3 0.00 0.00 0.00 74 1013.3
20260505214504 11 316 3.2 11.3 0.00 0.00 0.00 74 1013.3
20260505213005 11 338 1.6 4.8 0.00 0.00 0.00 73 1013.2
20260505212004 11 328 3.2 8.0 0.00 0.00 0.00 72 1013.3
20260505211505 11 357 1.6 4.8 0.00 0.00 0.00 72 1013.2
20260505211005 11 329 1.6 4.8 0.00 0.00 0.00 72 1013.2
20260505210505 12 343 3.2 4.8 0.00 0.00 0.00 71 1013.2
20260505205504 12 336 3.2 8.0 0.00 0.00 0.00 70 1013.2
20260505205004 12 341 3.2 4.8 0.00 0.00 0.00 70 1013.2
20260505204505 12 17 3.2 4.8 0.00 0.00 0.00 69 1013.2
20260505204004 12 333 3.2 9.7 0.00 0.00 0.00 68 1013.2
20260505202505 12 357 3.2 8.0 0.00 0.00 0.00 67 1013.1
20260505202005 13 347 3.2 8.0 0.00 0.03 0.00 67 1013.0
20260505201504 13 337 3.2 11.3 0.00 0.03 0.00 66 1013.0
20260505200005 13 15 3.2 12.9 0.00 0.05 0.00 65 1012.9
20260505195004 13 355 4.8 12.9 0.00 0.05 0.00 64 1012.8
20260505193505 13 358 4.8 12.9 0.00 0.05 0.00 64 1012.6
20260505193005 13 1 4.8 12.9 0.00 0.05 0.00 64 1012.6
20260505191505 14 344 3.2 9.7 0.00 0.05 0.00 63 1012.6
20260505185504 15 9 4.8 9.7 0.00 0.05 0.00 62 1012.4
20260505185004 15 340 3.2 11.3 0.00 0.05 0.00 62 1012.3
20260505182504 15 338 6.4 14.5 0.00 0.05 0.00 59 1012.2
20260505182005 15 341 8.0 14.5 0.00 0.05 0.00 57 1012.1
20260505181004 15 345 3.2 14.5 0.00 0.05 0.00 57 1012.1
20260505180005 16 354 8.0 11.3 0.00 0.05 0.00 55 1012.1
20260505175505 16 341 4.8 14.5 0.00 0.05 0.00 55 1012.1
20260505173505 16 10 8.0 16.1 0.00 0.05 0.00 53 1012.1
20260505173005 16 358 8.0 16.1 0.00 0.05 0.00 53 1012.2
20260505172504 16 4 6.4 16.1 0.00 0.05 0.00 52 1012.1
20260505172004 16 7 8.0 16.1 0.00 0.05 0.00 50 1012.2
20260505171505 17 339 8.0 14.5 0.00 0.05 0.00 51 1012.2
20260505171005 17 13 4.8 14.5 0.00 0.05 0.00 51 1012.2
20260505170504 17 345 4.8 20.9 0.00 0.05 0.00 51 1012.2
20260505165504 17 330 8.0 14.5 0.00 0.05 0.00 51 1012.2
20260505165004 17 343 9.7 14.5 0.00 0.05 0.00 48 1012.3
20260505163504 17 319 8.0 16.1 0.00 0.05 0.00 50 1012.3
20260505162505 17 25 6.4 16.1 0.00 0.05 0.00 50 1012.2
20260505161504 17 6 6.4 16.1 0.00 0.08 0.00 51 1012.3
20260505160505 17 331 9.7 16.1 0.00 0.08 0.00 50 1012.2
20260505153005 17 353 8.0 19.3 0.00 0.10 0.00 51 1012.4
20260505152504 17 349 11.3 19.3 0.00 0.10 0.00 49 1012.4
20260505140504 16 345 11.3 20.9 0.00 0.10 0.00 55 1012.8
20260505124505 17 353 9.7 16.1 0.00 0.10 0.00 57 1013.2
20260505124005 17 347 8.0 16.1 0.00 0.10 0.00 58 1013.2
20260505122505 17 356 4.8 20.9 0.00 0.10 0.00 60 1013.1
20260505121504 17 340 8.0 19.3 0.00 0.10 0.00 59 1013.2
20260505120005 17 13 8.0 19.3 0.00 0.10 0.00 58 1013.3
20260505115005 17 342 11.3 20.9 0.00 0.10 0.00 60 1013.2
20260505114004 17 350 6.4 19.3 0.00 0.10 0.00 59 1013.2
20260505113504 17 1 9.7 22.5 0.00 0.10 0.00 60 1013.2
20260505113005 17 338 11.3 22.5 0.00 0.10 0.00 61 1013.3
20260505112504 17 357 8.0 14.5 0.00 0.10 0.00 62 1013.3
20260505111505 16 329 8.0 14.5 0.00 0.10 0.00 63 1013.3
20260505111004 16 330 8.0 19.3 0.00 0.10 0.00 63 1013.3
20260505101004 13 25 4.8 12.9 0.00 0.10 0.00 70 1013.7
20260505100004 13 8 8.0 14.5 0.00 0.10 0.00 70 1013.7
20260505094504 13 350 6.4 14.5 0.00 0.10 0.00 73 1013.7
20260505092504 13 354 6.4 11.3 0.00 0.10 0.00 74 1013.8
20260505092005 13 6 3.2 11.3 0.00 0.10 0.00 74 1013.8
20260505090505 13 16 6.4 16.1 0.00 0.10 0.00 73 1013.7
20260505085004 13 355 8.0 16.1 0.00 0.10 0.00 74 1013.8
20260505084505 13 329 4.8 12.9 0.00 0.10 0.00 76 1013.8
20260505083504 13 328 8.0 12.9 0.00 0.10 0.00 77 1014.0
20260505082005 12 19 4.8 12.9 0.00 0.10 0.00 81 1014.0
20260505081505 12 349 8.0 12.9 0.00 0.10 0.00 82 1014.0
20260505081004 12 12 4.8 14.5 0.00 0.10 0.00 81 1014.0
20260505080505 12 356 4.8 14.5 0.00 0.10 0.00 82 1014.0
20260505080005 12 332 6.4 12.9 0.00 0.10 0.00 83 1014.0
20260505075504 12 339 8.0 12.9 0.00 0.10 0.00 85 1013.9
20260505075004 12 343 4.8 12.9 0.00 0.10 0.00 87 1014.0
20260505074504 12 347 6.4 12.9 0.00 0.10 0.00 88 1014.0
20260505073504 11 349 4.8 9.7 0.00 0.10 0.00 88 1013.9
20260505073005 11 20 4.8 11.3 0.00 0.10 0.00 90 1013.9
20260505072005 11 354 4.8 9.7 0.00 0.10 0.00 90 1014.0
20260505071504 11 341 4.8 11.3 0.00 0.10 0.00 91 1014.0
20260505070504 11 352 4.8 14.5 0.00 0.10 0.00 92 1013.9
20260505070005 11 22 4.8 14.5 0.00 0.10 0.00 92 1013.9
20260505065005 10 353 3.2 9.7 0.00 0.10 0.00 93 1014.1
20260505064005 10 350 4.8 11.3 0.00 0.10 0.00 93 1014.1
20260505063505 10 340 4.8 11.3 0.00 0.10 0.00 93 1014.1
20260505062504 10 357 3.2 8.0 0.00 0.10 0.00 93 1014.0
20260505060504 10 348 3.2 9.7 0.00 0.10 0.00 93 1013.8
20260505055505 10 337 4.8 9.7 0.00 0.10 0.00 94 1013.7
20260505055005 10 337 3.2 9.7 0.00 0.10 0.00 94 1013.7
20260505054504 10 344 4.8 9.7 0.00 0.10 0.00 94 1013.7
20260505053504 10 331 6.4 9.7 0.00 0.10 0.00 94 1013.8
20260505053004 10 329 3.2 9.7 0.00 0.10 0.00 93 1013.8
20260505051504 10 349 4.8 9.7 0.00 0.10 0.00 93 1013.6
20260505051005 10 354 4.8 9.7 0.00 0.10 0.00 93 1013.6
20260505035005 11 4 3.2 8.0 0.00 0.10 0.00 93 1013.7
20260505034504 11 4 1.6 4.8 0.00 0.10 0.00 92 1013.7
20260505033504 11 1 0.0 4.8 0.00 0.10 0.00 92 1013.7
20260505033004 11 354 3.2 4.8 0.00 0.10 0.00 92 1013.7
20260505032505 11 336 3.2 4.8 0.00 0.10 0.00 92 1013.7
20260505032004 11 334 4.8 4.8 0.00 0.10 0.00 92 1013.7
20260505025005 11 342 3.2 8.0 0.00 0.10 0.00 91 1013.7
20260505024005 11 339 4.8 8.0 0.00 0.10 0.00 91 1013.6
20260505023504 11 335 3.2 8.0 0.00 0.10 0.00 91 1013.7
20260505021005 12 338 3.2 4.8 0.00 0.10 0.00 90 1013.8
20260505020505 12 0 1.6 4.8 0.00 0.10 0.00 90 1013.8
20260505020005 12 355 1.6 3.2 0.00 0.10 0.00 89 1013.9
20260505015005 12 355 1.6 4.8 0.00 0.10 0.00 89 1014.0
20260505013505 12 38 1.6 4.8 0.00 0.10 0.00 89 1014.0
20260505013004 12 40 0.0 4.8 0.00 0.10 0.00 89 1014.1
20260505012505 12 24 1.6 4.8 0.00 0.10 0.00 89 1014.2
20260505005505 12 355 1.6 4.8 0.00 0.10 0.00 89 1014.2
20260505005005 12 337 3.2 4.8 0.00 0.10 0.00 89 1014.3
20260505004005 12 350 1.6 8.0 0.00 0.10 0.00 88 1014.4
20260505003504 12 342 3.2 8.0 0.00 0.10 0.00 88 1014.4
20260505003004 12 4 1.6 8.0 0.00 0.10 0.00 88 1014.3
20260505002505 12 18 3.2 8.0 0.00 0.10 0.00 88 1014.3
20260505001504 12 11 3.2 4.8 0.00 0.10 0.00 88 1014.3
20260505000004 12 43 1.6 4.8 0.00 0.10 0.00 89 1014.4
20260504233504 12 52 3.2 8.0 0.00 0.10 0.00 91 1014.5
20260504233005 12 35 1.6 4.8 0.00 0.10 0.00 91 1014.5
20260504231005 12 46 1.6 8.0 0.00 0.10 0.00 91 1014.4
20260504230505 12 5 3.2 8.0 0.00 0.10 0.00 91 1014.3
20260504230005 12 5 3.2 4.8 0.00 0.10 0.00 91 1014.3
20260504225505 12 12 1.6 4.8 0.00 0.10 0.10 91 1014.4
20260504224505 12 30 3.2 8.0 0.00 0.10 0.10 91 1014.4
20260504223505 12 335 3.2 8.0 0.00 0.10 0.10 91 1014.4
20260504222505 12 325 3.2 8.0 0.00 0.10 0.10 91 1014.5
20260504221004 12 325 4.8 8.0 0.00 0.10 0.10 91 1014.5
20260504220505 12 332 4.8 8.0 0.00 0.10 0.10 91 1014.5
20260504220004 12 345 3.2 8.0 0.00 0.10 0.10 91 1014.5